owner,sensor,date,latitude,longitude,vertical_datum,wind_speed,wind_to_direction,wind_speed_of_gust,qcFlag 
TCOON,ioos:station:TCOON:524:1,2017-06-01T00:00:00Z,29.8672,-93.9310,0.0,1.0,168.0,2.9,'11111222,11111222,11111222' 
TCOON,ioos:station:TCOON:524:1,2017-06-01T00:06:00Z,29.8672,-93.9310,0.0,1.2,162.0,2.3,'11111222,11111222,11111222' 
TCOON,ioos:station:TCOON:524:1,2017-06-01T00:12:00Z,29.8672,-93.9310,0.0,0.9,186.0,1.7,'11111222,11111222,11111222' 
TCOON,ioos:station:TCOON:524:1,2017-06-01T00:18:00Z,29.8672,-93.9310,0.0,0.9,186.0,1.7,'1111122,1111122,1111122' 
TCOON,ioos:station:TCOON:524:1,2017-06-01T00:24:00Z,29.8672,-93.9310,0.0,1.0,136.0,1.5,'11111222,11111222,11111222' 
TCOON,ioos:station:TCOON:524:1,2017-06-01T00:30:00Z,29.8672,-93.9310,0.0,1.4,153.0,2.1,'11111222,11111222,11111222' 
TCOON,ioos:station:TCOON:524:1,2017-06-01T00:36:00Z,29.8672,-93.9310,0.0,1.6,150.0,2.6,'11111222,11111222,11111222' 
TCOON,ioos:station:TCOON:524:1,2017-06-01T00:42:00Z,29.8672,-93.9310,0.0,1.8,150.0,3.0,'11111222,11111222,11111222' 
TCOON,ioos:station:TCOON:524:1,2017-06-01T00:48:00Z,29.8672,-93.9310,0.0,1.4,150.0,2.0,'11111222,11111222,11111222' 
TCOON,ioos:station:TCOON:524:1,2017-06-01T00:54:00Z,29.8672,-93.9310,0.0,1.5,156.0,2.3,'11111222,11111222,11111222' 
TCOON,ioos:station:TCOON:524:1,2017-06-01T01:00:00Z,29.8672,-93.9310,0.0,1.2,161.0,2.2,'11111222,11111222,11111222' 
TCOON,ioos:station:TCOON:524:1,2017-06-01T01:06:00Z,29.8672,-93.9310,0.0,0.8,148.0,1.5,'11111222,11111222,11111222' 
TCOON,ioos:station:TCOON:524:1,2017-06-01T01:12:00Z,29.8672,-93.9310,0.0,0.7,135.0,1.1,'11111222,11111222,11111222' 
TCOON,ioos:station:TCOON:524:1,2017-06-01T01:18:00Z,29.8672,-93.9310,0.0,0.7,135.0,1.1,'1111122,1111122,1111122' 
TCOON,ioos:station:TCOON:524:1,2017-06-01T01:24:00Z,29.8672,-93.9310,0.0,1.0,118.0,1.3,'11111222,11111222,11111222' 
TCOON,ioos:station:TCOON:524:1,2017-06-01T01:30:00Z,29.8672,-93.9310,0.0,0.8,134.0,1.2,'11111222,11111222,11111222' 
TCOON,ioos:station:TCOON:524:1,2017-06-01T01:36:00Z,29.8672,-93.9310,0.0,0.9,161.0,1.2,'11111222,11111222,11111222' 
TCOON,ioos:station:TCOON:524:1,2017-06-01T01:42:00Z,29.8672,-93.9310,0.0,1.3,164.0,1.8,'11111222,11111222,11111222' 
TCOON,ioos:station:TCOON:524:1,2017-06-01T01:48:00Z,29.8672,-93.9310,0.0,1.7,164.0,2.2,'11111222,11111222,11111222' 
TCOON,ioos:station:TCOON:524:1,2017-06-01T01:54:00Z,29.8672,-93.9310,0.0,2.3,165.0,3.3,'11111222,11111222,11111222' 
TCOON,ioos:station:TCOON:524:1,2017-06-01T02:00:00Z,29.8672,-93.9310,0.0,2.1,149.0,3.0,'11111222,11111222,11111222' 
TCOON,ioos:station:TCOON:524:1,2017-06-01T02:06:00Z,29.8672,-93.9310,0.0,2.8,145.0,3.5,'11111222,11111222,11111222' 
TCOON,ioos:station:TCOON:524:1,2017-06-01T02:12:00Z,29.8672,-93.9310,0.0,2.6,150.0,3.5,'11111222,11111222,11111222' 
TCOON,ioos:station:TCOON:524:1,2017-06-01T02:18:00Z,29.8672,-93.9310,0.0,2.6,150.0,3.5,'1111122,1111122,1111122' 
TCOON,ioos:station:TCOON:524:1,2017-06-01T02:24:00Z,29.8672,-93.9310,0.0,1.6,152.0,2.5,'11111222,11111222,11111222' 
TCOON,ioos:station:TCOON:524:1,2017-06-01T02:30:00Z,29.8672,-93.9310,0.0,1.6,158.0,2.8,'11111222,11111222,11111222' 
TCOON,ioos:station:TCOON:524:1,2017-06-01T02:36:00Z,29.8672,-93.9310,0.0,1.6,163.0,2.2,'11111222,11111222,11111222' 
TCOON,ioos:station:TCOON:524:1,2017-06-01T02:42:00Z,29.8672,-93.9310,0.0,1.5,153.0,2.9,'11111222,11111222,11111222' 
TCOON,ioos:station:TCOON:524:1,2017-06-01T02:48:00Z,29.8672,-93.9310,0.0,1.1,139.0,2.2,'11111222,11111222,11111222' 
TCOON,ioos:station:TCOON:524:1,2017-06-01T02:54:00Z,29.8672,-93.9310,0.0,1.0,132.0,1.7,'11111222,11111222,11111222' 
TCOON,ioos:station:TCOON:524:1,2017-06-01T03:00:00Z,29.8672,-93.9310,0.0,0.4,143.0,1.6,'11111222,11111222,11111222' 
TCOON,ioos:station:TCOON:524:1,2017-06-01T03:06:00Z,29.8672,-93.9310,0.0,1.5,164.0,1.9,'11111222,11111222,11111222' 
TCOON,ioos:station:TCOON:524:1,2017-06-01T03:12:00Z,29.8672,-93.9310,0.0,1.1,158.0,2.3,'11111222,11111222,11111222' 
TCOON,ioos:station:TCOON:524:1,2017-06-01T03:18:00Z,29.8672,-93.9310,0.0,1.1,158.0,2.3,'1111122,1111122,1111122' 
TCOON,ioos:station:TCOON:524:1,2017-06-01T03:24:00Z,29.8672,-93.9310,0.0,1.9,171.0,2.9,'11111222,11111222,11111222' 
TCOON,ioos:station:TCOON:524:1,2017-06-01T03:30:00Z,29.8672,-93.9310,0.0,1.4,157.0,2.2,'11111222,11111222,11111222' 
TCOON,ioos:station:TCOON:524:1,2017-06-01T03:36:00Z,29.8672,-93.9310,0.0,1.0,151.0,1.6,'11111222,11111222,11111222' 
TCOON,ioos:station:TCOON:524:1,2017-06-01T03:42:00Z,29.8672,-93.9310,0.0,1.5,161.0,2.4,'11111222,11111222,11111222' 
TCOON,ioos:station:TCOON:524:1,2017-06-01T03:48:00Z,29.8672,-93.9310,0.0,1.6,164.0,2.6,'11111222,11111222,11111222' 
TCOON,ioos:station:TCOON:524:1,2017-06-01T03:54:00Z,29.8672,-93.9310,0.0,1.7,174.0,2.5,'11111222,11111222,11111222' 
TCOON,ioos:station:TCOON:524:1,2017-06-01T04:00:00Z,29.8672,-93.9310,0.0,1.8,174.0,2.6,'11111222,11111222,11111222' 
TCOON,ioos:station:TCOON:524:1,2017-06-01T04:06:00Z,29.8672,-93.9310,0.0,1.7,172.0,2.8,'11111222,11111222,11111222' 
TCOON,ioos:station:TCOON:524:1,2017-06-01T04:12:00Z,29.8672,-93.9310,0.0,1.7,166.0,3.0,'11111222,11111222,11111222' 
TCOON,ioos:station:TCOON:524:1,2017-06-01T04:18:00Z,29.8672,-93.9310,0.0,1.7,166.0,3.0,'1111122,1111122,1111122' 
TCOON,ioos:station:TCOON:524:1,2017-06-01T04:24:00Z,29.8672,-93.9310,0.0,2.2,172.0,3.1,'11111222,11111222,11111222' 
TCOON,ioos:station:TCOON:524:1,2017-06-01T04:30:00Z,29.8672,-93.9310,0.0,2.0,174.0,3.6,'11111222,11111222,11111222' 
TCOON,ioos:station:TCOON:524:1,2017-06-01T04:36:00Z,29.8672,-93.9310,0.0,2.3,178.0,3.5,'11111222,11111222,11111222' 
TCOON,ioos:station:TCOON:524:1,2017-06-01T04:42:00Z,29.8672,-93.9310,0.0,3.6,205.0,6.3,'11111222,11111222,11111222' 
TCOON,ioos:station:TCOON:524:1,2017-06-01T04:48:00Z,29.8672,-93.9310,0.0,2.4,189.0,4.9,'11111222,11111222,11111222' 
TCOON,ioos:station:TCOON:524:1,2017-06-01T04:54:00Z,29.8672,-93.9310,0.0,3.5,184.0,4.8,'11111222,11111222,11111222' 
TCOON,ioos:station:TCOON:524:1,2017-06-01T05:00:00Z,29.8672,-93.9310,0.0,4.6,201.0,7.1,'11111222,11111222,11111222' 
TCOON,ioos:station:TCOON:524:1,2017-06-01T05:06:00Z,29.8672,-93.9310,0.0,4.2,189.0,5.4,'11111222,11111222,11111222' 
TCOON,ioos:station:TCOON:524:1,2017-06-01T05:12:00Z,29.8672,-93.9310,0.0,3.3,198.0,5.0,'11111222,11111222,11111222' 
TCOON,ioos:station:TCOON:524:1,2017-06-01T05:18:00Z,29.8672,-93.9310,0.0,3.3,198.0,5.0,'1111122,1111122,1111122' 
TCOON,ioos:station:TCOON:524:1,2017-06-01T05:24:00Z,29.8672,-93.9310,0.0,2.4,174.0,4.8,'11111222,11111222,11111222' 
TCOON,ioos:station:TCOON:524:1,2017-06-01T05:30:00Z,29.8672,-93.9310,0.0,1.8,163.0,3.9,'11111222,11111222,11111222' 
TCOON,ioos:station:TCOON:524:1,2017-06-01T05:36:00Z,29.8672,-93.9310,0.0,3.9,146.0,5.2,'11111222,11111222,11111222' 
TCOON,ioos:station:TCOON:524:1,2017-06-01T05:42:00Z,29.8672,-93.9310,0.0,3.2,141.0,6.0,'11111222,11111222,11111222' 
TCOON,ioos:station:TCOON:524:1,2017-06-01T05:48:00Z,29.8672,-93.9310,0.0,3.1,142.0,5.9,'11111222,11111222,11111222' 
TCOON,ioos:station:TCOON:524:1,2017-06-01T05:54:00Z,29.8672,-93.9310,0.0,2.8,142.0,3.6,'11111222,11111222,11111222' 
TCOON,ioos:station:TCOON:524:1,2017-06-01T06:00:00Z,29.8672,-93.9310,0.0,1.6,142.0,3.5,'11111222,11111222,11111222' 
TCOON,ioos:station:TCOON:524:1,2017-06-01T06:06:00Z,29.8672,-93.9310,0.0,1.5,155.0,2.5,'11111222,11111222,11111222' 
TCOON,ioos:station:TCOON:524:1,2017-06-01T06:12:00Z,29.8672,-93.9310,0.0,1.6,147.0,2.3,'11111222,11111222,11111222' 
TCOON,ioos:station:TCOON:524:1,2017-06-01T06:18:00Z,29.8672,-93.9310,0.0,1.6,147.0,2.3,'1111122,1111122,1111122' 
TCOON,ioos:station:TCOON:524:1,2017-06-01T06:24:00Z,29.8672,-93.9310,0.0,1.3,134.0,1.7,'11111222,11111222,11111222' 
TCOON,ioos:station:TCOON:524:1,2017-06-01T06:30:00Z,29.8672,-93.9310,0.0,1.6,127.0,2.3,'11111222,11111222,11111222' 
TCOON,ioos:station:TCOON:524:1,2017-06-01T06:36:00Z,29.8672,-93.9310,0.0,2.2,120.0,3.0,'11111222,11111222,11111222' 
TCOON,ioos:station:TCOON:524:1,2017-06-01T06:42:00Z,29.8672,-93.9310,0.0,2.3,114.0,3.2,'11111222,11111222,11111222' 
TCOON,ioos:station:TCOON:524:1,2017-06-01T06:48:00Z,29.8672,-93.9310,0.0,2.1,97.0,3.4,'11111222,11111222,11111222' 
TCOON,ioos:station:TCOON:524:1,2017-06-01T06:54:00Z,29.8672,-93.9310,0.0,2.1,75.0,3.2,'11111222,11111222,11111222' 
TCOON,ioos:station:TCOON:524:1,2017-06-01T07:00:00Z,29.8672,-93.9310,0.0,1.8,120.0,2.6,'11111222,11111222,11111222' 
TCOON,ioos:station:TCOON:524:1,2017-06-01T07:06:00Z,29.8672,-93.9310,0.0,1.2,124.0,2.3,'11111222,11111222,11111222' 
TCOON,ioos:station:TCOON:524:1,2017-06-01T07:12:00Z,29.8672,-93.9310,0.0,2.0,126.0,2.7,'11111222,11111222,11111222' 
TCOON,ioos:station:TCOON:524:1,2017-06-01T07:18:00Z,29.8672,-93.9310,0.0,2.0,126.0,2.7,'1111122,1111122,1111122' 
TCOON,ioos:station:TCOON:524:1,2017-06-01T07:24:00Z,29.8672,-93.9310,0.0,2.0,151.0,3.7,'11111222,11111222,11111222' 
TCOON,ioos:station:TCOON:524:1,2017-06-01T07:30:00Z,29.8672,-93.9310,0.0,2.3,149.0,3.6,'11111222,11111222,11111222' 
TCOON,ioos:station:TCOON:524:1,2017-06-01T07:36:00Z,29.8672,-93.9310,0.0,2.0,119.0,2.9,'11111222,11111222,11111222' 
TCOON,ioos:station:TCOON:524:1,2017-06-01T07:42:00Z,29.8672,-93.9310,0.0,2.5,134.0,4.0,'11111222,11111222,11111222' 
TCOON,ioos:station:TCOON:524:1,2017-06-01T07:48:00Z,29.8672,-93.9310,0.0,2.8,130.0,4.2,'11111222,11111222,11111222' 
TCOON,ioos:station:TCOON:524:1,2017-06-01T07:54:00Z,29.8672,-93.9310,0.0,1.8,125.0,3.9,'11111222,11111222,11111222' 
TCOON,ioos:station:TCOON:524:1,2017-06-01T08:00:00Z,29.8672,-93.9310,0.0,1.7,112.0,2.9,'11111222,11111222,11111222' 
TCOON,ioos:station:TCOON:524:1,2017-06-01T08:06:00Z,29.8672,-93.9310,0.0,2.6,112.0,3.5,'11111222,11111222,11111222' 
TCOON,ioos:station:TCOON:524:1,2017-06-01T08:12:00Z,29.8672,-93.9310,0.0,2.7,112.0,3.9,'11111222,11111222,11111222' 
TCOON,ioos:station:TCOON:524:1,2017-06-01T08:18:00Z,29.8672,-93.9310,0.0,2.7,112.0,3.9,'1111122,1111122,1111122' 
TCOON,ioos:station:TCOON:524:1,2017-06-01T08:24:00Z,29.8672,-93.9310,0.0,3.4,124.0,5.1,'11111222,11111222,11111222' 
TCOON,ioos:station:TCOON:524:1,2017-06-01T08:30:00Z,29.8672,-93.9310,0.0,3.0,114.0,4.8,'11111222,11111222,11111222' 
TCOON,ioos:station:TCOON:524:1,2017-06-01T08:36:00Z,29.8672,-93.9310,0.0,2.0,120.0,3.6,'11111222,11111222,11111222' 
TCOON,ioos:station:TCOON:524:1,2017-06-01T08:42:00Z,29.8672,-93.9310,0.0,1.7,112.0,2.9,'11111222,11111222,11111222' 
TCOON,ioos:station:TCOON:524:1,2017-06-01T08:48:00Z,29.8672,-93.9310,0.0,1.5,122.0,2.3,'11111222,11111222,11111222' 
TCOON,ioos:station:TCOON:524:1,2017-06-01T08:54:00Z,29.8672,-93.9310,0.0,1.4,124.0,2.3,'11111222,11111222,11111222' 
TCOON,ioos:station:TCOON:524:1,2017-06-01T09:00:00Z,29.8672,-93.9310,0.0,1.5,128.0,2.0,'11111222,11111222,11111222' 
TCOON,ioos:station:TCOON:524:1,2017-06-01T09:06:00Z,29.8672,-93.9310,0.0,1.6,135.0,2.2,'11111222,11111222,11111222' 
TCOON,ioos:station:TCOON:524:1,2017-06-01T09:12:00Z,29.8672,-93.9310,0.0,1.5,126.0,2.6,'11111222,11111222,11111222' 
TCOON,ioos:station:TCOON:524:1,2017-06-01T09:18:00Z,29.8672,-93.9310,0.0,1.5,126.0,2.6,'1111122,1111122,1111122' 
TCOON,ioos:station:TCOON:524:1,2017-06-01T09:24:00Z,29.8672,-93.9310,0.0,1.3,116.0,2.0,'11111222,11111222,11111222' 
TCOON,ioos:station:TCOON:524:1,2017-06-01T09:30:00Z,29.8672,-93.9310,0.0,0.9,107.0,1.7,'11111222,11111222,11111222' 
TCOON,ioos:station:TCOON:524:1,2017-06-01T09:36:00Z,29.8672,-93.9310,0.0,0.4,177.0,1.1,'11111222,11111222,11111222' 
TCOON,ioos:station:TCOON:524:1,2017-06-01T09:42:00Z,29.8672,-93.9310,0.0,0.0,166.0,0.4,'11111222,11111222,11111222' 
TCOON,ioos:station:TCOON:524:1,2017-06-01T09:48:00Z,29.8672,-93.9310,0.0,0.0,33.0,0.2,'11111222,11111222,11111222' 
TCOON,ioos:station:TCOON:524:1,2017-06-01T09:54:00Z,29.8672,-93.9310,0.0,0.3,25.0,0.4,'11111222,11111222,11111222' 
TCOON,ioos:station:TCOON:524:1,2017-06-01T10:00:00Z,29.8672,-93.9310,0.0,0.4,20.0,0.9,'11111222,11111222,11111222' 
TCOON,ioos:station:TCOON:524:1,2017-06-01T10:06:00Z,29.8672,-93.9310,0.0,0.4,39.0,0.6,'11111222,11111222,11111222' 
TCOON,ioos:station:TCOON:524:1,2017-06-01T10:12:00Z,29.8672,-93.9310,0.0,0.8,32.0,1.3,'11111222,11111222,11111222' 
TCOON,ioos:station:TCOON:524:1,2017-06-01T10:18:00Z,29.8672,-93.9310,0.0,0.8,32.0,1.3,'1111122,1111122,1111122' 
TCOON,ioos:station:TCOON:524:1,2017-06-01T10:24:00Z,29.8672,-93.9310,0.0,0.4,68.0,1.5,'11111222,11111222,11111222' 
TCOON,ioos:station:TCOON:524:1,2017-06-01T10:30:00Z,29.8672,-93.9310,0.0,0.7,22.0,0.9,'11111222,11111222,11111222' 
TCOON,ioos:station:TCOON:524:1,2017-06-01T10:36:00Z,29.8672,-93.9310,0.0,0.6,38.0,0.9,'11111222,11111222,11111222' 
TCOON,ioos:station:TCOON:524:1,2017-06-01T10:42:00Z,29.8672,-93.9310,0.0,0.4,70.0,0.8,'11111222,11111222,11111222' 
TCOON,ioos:station:TCOON:524:1,2017-06-01T10:48:00Z,29.8672,-93.9310,0.0,1.1,18.0,1.4,'11111222,11111222,11111222' 
TCOON,ioos:station:TCOON:524:1,2017-06-01T10:54:00Z,29.8672,-93.9310,0.0,1.3,11.0,1.6,'11111222,11111222,11111222' 
TCOON,ioos:station:TCOON:524:1,2017-06-01T11:00:00Z,29.8672,-93.9310,0.0,2.0,1.0,2.2,'11111222,11111222,11111222' 
TCOON,ioos:station:TCOON:524:1,2017-06-01T11:06:00Z,29.8672,-93.9310,0.0,2.2,344.0,2.7,'11111222,11111222,11111222' 
TCOON,ioos:station:TCOON:524:1,2017-06-01T11:12:00Z,29.8672,-93.9310,0.0,2.0,350.0,2.8,'11111222,11111222,11111222' 
TCOON,ioos:station:TCOON:524:1,2017-06-01T11:18:00Z,29.8672,-93.9310,0.0,2.0,350.0,2.8,'1111122,1111122,1111122' 
TCOON,ioos:station:TCOON:524:1,2017-06-01T11:24:00Z,29.8672,-93.9310,0.0,1.9,4.0,2.3,'11111222,11111222,11111222' 
TCOON,ioos:station:TCOON:524:1,2017-06-01T11:30:00Z,29.8672,-93.9310,0.0,1.7,20.0,2.4,'11111222,11111222,11111222' 
TCOON,ioos:station:TCOON:524:1,2017-06-01T11:36:00Z,29.8672,-93.9310,0.0,2.3,27.0,2.7,'11111222,11111222,11111222' 
TCOON,ioos:station:TCOON:524:1,2017-06-01T11:42:00Z,29.8672,-93.9310,0.0,2.1,342.0,2.5,'11111222,11111222,11111222' 
TCOON,ioos:station:TCOON:524:1,2017-06-01T11:48:00Z,29.8672,-93.9310,0.0,2.3,9.0,2.6,'11111222,11111222,11111222' 
TCOON,ioos:station:TCOON:524:1,2017-06-01T11:54:00Z,29.8672,-93.9310,0.0,2.0,19.0,2.7,'11111222,11111222,11111222' 
TCOON,ioos:station:TCOON:524:1,2017-06-01T12:00:00Z,29.8672,-93.9310,0.0,2.5,2.0,2.8,'11111222,11111222,11111222' 
TCOON,ioos:station:TCOON:524:1,2017-06-01T12:06:00Z,29.8672,-93.9310,0.0,2.0,349.0,2.6,'11111222,11111222,11111222' 
TCOON,ioos:station:TCOON:524:1,2017-06-01T12:12:00Z,29.8672,-93.9310,0.0,2.4,336.0,2.8,'11111222,11111222,11111222' 
TCOON,ioos:station:TCOON:524:1,2017-06-01T12:18:00Z,29.8672,-93.9310,0.0,2.4,336.0,2.8,'1111122,1111122,1111122' 
TCOON,ioos:station:TCOON:524:1,2017-06-01T12:24:00Z,29.8672,-93.9310,0.0,1.4,117.0,1.9,'11111222,11111222,11111222' 
TCOON,ioos:station:TCOON:524:1,2017-06-01T12:30:00Z,29.8672,-93.9310,0.0,0.6,84.0,1.9,'11111222,11111222,11111222' 
TCOON,ioos:station:TCOON:524:1,2017-06-01T12:36:00Z,29.8672,-93.9310,0.0,1.6,49.0,2.7,'11111222,11111222,11111222' 
TCOON,ioos:station:TCOON:524:1,2017-06-01T12:42:00Z,29.8672,-93.9310,0.0,2.2,37.0,3.2,'11111222,11111222,11111222' 
TCOON,ioos:station:TCOON:524:1,2017-06-01T12:48:00Z,29.8672,-93.9310,0.0,3.4,26.0,4.6,'11111222,11111222,11111222' 
TCOON,ioos:station:TCOON:524:1,2017-06-01T12:54:00Z,29.8672,-93.9310,0.0,2.5,23.0,3.5,'11111222,11111222,11111222' 
TCOON,ioos:station:TCOON:524:1,2017-06-01T13:00:00Z,29.8672,-93.9310,0.0,1.3,55.0,3.1,'11111222,11111222,11111222' 
TCOON,ioos:station:TCOON:524:1,2017-06-01T13:06:00Z,29.8672,-93.9310,0.0,1.9,37.0,2.5,'11111222,11111222,11111222' 
TCOON,ioos:station:TCOON:524:1,2017-06-01T13:12:00Z,29.8672,-93.9310,0.0,2.1,44.0,3.1,'11111222,11111222,11111222' 
TCOON,ioos:station:TCOON:524:1,2017-06-01T13:18:00Z,29.8672,-93.9310,0.0,2.1,44.0,3.1,'1111122,1111122,1111122' 
TCOON,ioos:station:TCOON:524:1,2017-06-01T13:24:00Z,29.8672,-93.9310,0.0,2.0,34.0,3.1,'11111222,11111222,11111222' 
TCOON,ioos:station:TCOON:524:1,2017-06-01T13:30:00Z,29.8672,-93.9310,0.0,1.6,46.0,2.9,'11111222,11111222,11111222' 
TCOON,ioos:station:TCOON:524:1,2017-06-01T13:36:00Z,29.8672,-93.9310,0.0,1.8,53.0,3.2,'11111222,11111222,11111222' 
TCOON,ioos:station:TCOON:524:1,2017-06-01T13:42:00Z,29.8672,-93.9310,0.0,2.6,36.0,4.5,'11111222,11111222,11111222' 
TCOON,ioos:station:TCOON:524:1,2017-06-01T13:48:00Z,29.8672,-93.9310,0.0,1.6,47.0,4.1,'11111222,11111222,11111222' 
TCOON,ioos:station:TCOON:524:1,2017-06-01T13:54:00Z,29.8672,-93.9310,0.0,1.8,53.0,4.4,'11111222,11111222,11111222' 
TCOON,ioos:station:TCOON:524:1,2017-06-01T14:00:00Z,29.8672,-93.9310,0.0,1.6,43.0,3.3,'11111222,11111222,11111222' 
TCOON,ioos:station:TCOON:524:1,2017-06-01T14:06:00Z,29.8672,-93.9310,0.0,1.4,45.0,3.7,'11111222,11111222,11111222' 
TCOON,ioos:station:TCOON:524:1,2017-06-01T14:12:00Z,29.8672,-93.9310,0.0,1.5,53.0,2.6,'11111222,11111222,11111222' 
TCOON,ioos:station:TCOON:524:1,2017-06-01T14:18:00Z,29.8672,-93.9310,0.0,1.5,53.0,2.6,'1111122,1111122,1111122' 
TCOON,ioos:station:TCOON:524:1,2017-06-01T14:24:00Z,29.8672,-93.9310,0.0,2.4,54.0,5.2,'11111222,11111222,11111222' 
TCOON,ioos:station:TCOON:524:1,2017-06-01T14:30:00Z,29.8672,-93.9310,0.0,1.2,54.0,3.5,'11111222,11111222,11111222' 
TCOON,ioos:station:TCOON:524:1,2017-06-01T14:36:00Z,29.8672,-93.9310,0.0,1.6,49.0,4.5,'11111222,11111222,11111222' 
TCOON,ioos:station:TCOON:524:1,2017-06-01T14:42:00Z,29.8672,-93.9310,0.0,2.1,55.0,3.3,'11111222,11111222,11111222' 
TCOON,ioos:station:TCOON:524:1,2017-06-01T14:48:00Z,29.8672,-93.9310,0.0,2.0,59.0,3.2,'11111222,11111222,11111222' 
TCOON,ioos:station:TCOON:524:1,2017-06-01T14:54:00Z,29.8672,-93.9310,0.0,3.3,67.0,5.5,'11111222,11111222,11111222' 
TCOON,ioos:station:TCOON:524:1,2017-06-01T15:00:00Z,29.8672,-93.9310,0.0,3.0,66.0,5.9,'11111222,11111222,11111222' 
TCOON,ioos:station:TCOON:524:1,2017-06-01T15:06:00Z,29.8672,-93.9310,0.0,3.9,80.0,5.9,'11111222,11111222,11111222' 
TCOON,ioos:station:TCOON:524:1,2017-06-01T15:12:00Z,29.8672,-93.9310,0.0,3.7,81.0,5.8,'11111222,11111222,11111222' 
TCOON,ioos:station:TCOON:524:1,2017-06-01T15:18:00Z,29.8672,-93.9310,0.0,3.7,81.0,5.8,'1111122,1111122,1111122' 
TCOON,ioos:station:TCOON:524:1,2017-06-01T15:24:00Z,29.8672,-93.9310,0.0,3.8,84.0,6.2,'11111222,11111222,11111222' 
TCOON,ioos:station:TCOON:524:1,2017-06-01T15:30:00Z,29.8672,-93.9310,0.0,4.2,91.0,6.4,'11111222,11111222,11111222' 
TCOON,ioos:station:TCOON:524:1,2017-06-01T15:36:00Z,29.8672,-93.9310,0.0,3.7,84.0,5.7,'11111222,11111222,11111222' 
TCOON,ioos:station:TCOON:524:1,2017-06-01T15:42:00Z,29.8672,-93.9310,0.0,3.7,92.0,5.2,'11111222,11111222,11111222' 
TCOON,ioos:station:TCOON:524:1,2017-06-01T15:48:00Z,29.8672,-93.9310,0.0,3.7,102.0,5.7,'11111222,11111222,11111222' 
TCOON,ioos:station:TCOON:524:1,2017-06-01T15:54:00Z,29.8672,-93.9310,0.0,3.7,93.0,5.6,'11111222,11111222,11111222' 
TCOON,ioos:station:TCOON:524:1,2017-06-01T16:00:00Z,29.8672,-93.9310,0.0,3.2,101.0,5.1,'11111222,11111222,11111222' 
TCOON,ioos:station:TCOON:524:1,2017-06-01T16:06:00Z,29.8672,-93.9310,0.0,2.6,92.0,4.8,'11111222,11111222,11111222' 
TCOON,ioos:station:TCOON:524:1,2017-06-01T16:12:00Z,29.8672,-93.9310,0.0,3.9,81.0,5.2,'11111222,11111222,11111222' 
TCOON,ioos:station:TCOON:524:1,2017-06-01T16:18:00Z,29.8672,-93.9310,0.0,3.9,81.0,5.2,'1111122,1111122,1111122' 
TCOON,ioos:station:TCOON:524:1,2017-06-01T16:24:00Z,29.8672,-93.9310,0.0,3.0,83.0,4.2,'11111222,11111222,11111222' 
TCOON,ioos:station:TCOON:524:1,2017-06-01T16:30:00Z,29.8672,-93.9310,0.0,3.1,87.0,5.0,'11111222,11111222,11111222' 
TCOON,ioos:station:TCOON:524:1,2017-06-01T16:36:00Z,29.8672,-93.9310,0.0,3.3,76.0,4.5,'11111222,11111222,11111222' 
TCOON,ioos:station:TCOON:524:1,2017-06-01T16:42:00Z,29.8672,-93.9310,0.0,2.6,84.0,5.7,'11111222,11111222,11111222' 
TCOON,ioos:station:TCOON:524:1,2017-06-01T16:48:00Z,29.8672,-93.9310,0.0,3.1,81.0,5.0,'11111222,11111222,11111222' 
TCOON,ioos:station:TCOON:524:1,2017-06-01T16:54:00Z,29.8672,-93.9310,0.0,4.1,82.0,5.4,'11111222,11111222,11111222' 
TCOON,ioos:station:TCOON:524:1,2017-06-01T17:00:00Z,29.8672,-93.9310,0.0,3.4,82.0,5.6,'11111222,11111222,11111222' 
TCOON,ioos:station:TCOON:524:1,2017-06-01T17:06:00Z,29.8672,-93.9310,0.0,3.8,94.0,6.0,'11111222,11111222,11111222' 
TCOON,ioos:station:TCOON:524:1,2017-06-01T17:12:00Z,29.8672,-93.9310,0.0,3.8,78.0,5.7,'11111222,11111222,11111222' 
TCOON,ioos:station:TCOON:524:1,2017-06-01T17:18:00Z,29.8672,-93.9310,0.0,3.8,78.0,5.7,'1111122,1111122,1111122' 
TCOON,ioos:station:TCOON:524:1,2017-06-01T17:24:00Z,29.8672,-93.9310,0.0,3.5,94.0,4.8,'11111222,11111222,11111222' 
TCOON,ioos:station:TCOON:524:1,2017-06-01T17:30:00Z,29.8672,-93.9310,0.0,3.5,85.0,4.9,'11111222,11111222,11111222' 
TCOON,ioos:station:TCOON:524:1,2017-06-01T17:36:00Z,29.8672,-93.9310,0.0,3.1,90.0,4.5,'11111222,11111222,11111222' 
TCOON,ioos:station:TCOON:524:1,2017-06-01T17:42:00Z,29.8672,-93.9310,0.0,3.5,85.0,5.0,'11111222,11111222,11111222' 
TCOON,ioos:station:TCOON:524:1,2017-06-01T17:48:00Z,29.8672,-93.9310,0.0,3.6,83.0,5.2,'11111222,11111222,11111222' 
TCOON,ioos:station:TCOON:524:1,2017-06-01T17:54:00Z,29.8672,-93.9310,0.0,3.3,86.0,5.2,'11111222,11111222,11111222' 
TCOON,ioos:station:TCOON:524:1,2017-06-01T18:00:00Z,29.8672,-93.9310,0.0,2.5,72.0,4.7,'11111222,11111222,11111222' 
TCOON,ioos:station:TCOON:524:1,2017-06-01T18:06:00Z,29.8672,-93.9310,0.0,3.0,102.0,5.3,'11111222,11111222,11111222' 
TCOON,ioos:station:TCOON:524:1,2017-06-01T18:12:00Z,29.8672,-93.9310,0.0,3.0,102.0,4.7,'11111222,11111222,11111222' 
TCOON,ioos:station:TCOON:524:1,2017-06-01T18:18:00Z,29.8672,-93.9310,0.0,3.0,102.0,4.7,'1111122,1111122,1111122' 
TCOON,ioos:station:TCOON:524:1,2017-06-01T18:24:00Z,29.8672,-93.9310,0.0,3.2,96.0,4.9,'11111222,11111222,11111222' 
TCOON,ioos:station:TCOON:524:1,2017-06-01T18:30:00Z,29.8672,-93.9310,0.0,2.8,85.0,4.5,'11111222,11111222,11111222' 
TCOON,ioos:station:TCOON:524:1,2017-06-01T18:36:00Z,29.8672,-93.9310,0.0,3.4,93.0,4.5,'11111222,11111222,11111222' 
TCOON,ioos:station:TCOON:524:1,2017-06-01T18:42:00Z,29.8672,-93.9310,0.0,3.5,92.0,4.5,'11111222,11111222,11111222' 
TCOON,ioos:station:TCOON:524:1,2017-06-01T18:48:00Z,29.8672,-93.9310,0.0,3.1,96.0,4.4,'11111222,11111222,11111222' 
TCOON,ioos:station:TCOON:524:1,2017-06-01T18:54:00Z,29.8672,-93.9310,0.0,3.0,75.0,4.6,'11111222,11111222,11111222' 
TCOON,ioos:station:TCOON:524:1,2017-06-01T19:00:00Z,29.8672,-93.9310,0.0,2.8,84.0,4.5,'11111222,11111222,11111222' 
TCOON,ioos:station:TCOON:524:1,2017-06-01T19:06:00Z,29.8672,-93.9310,0.0,2.9,83.0,5.2,'11111222,11111222,11111222' 
TCOON,ioos:station:TCOON:524:1,2017-06-01T19:12:00Z,29.8672,-93.9310,0.0,2.9,86.0,4.4,'11111222,11111222,11111222' 
TCOON,ioos:station:TCOON:524:1,2017-06-01T19:18:00Z,29.8672,-93.9310,0.0,2.9,86.0,4.4,'1111122,1111122,1111122' 
TCOON,ioos:station:TCOON:524:1,2017-06-01T19:24:00Z,29.8672,-93.9310,0.0,3.7,107.0,4.7,'11111222,11111222,11111222' 
TCOON,ioos:station:TCOON:524:1,2017-06-01T19:30:00Z,29.8672,-93.9310,0.0,3.0,91.0,4.5,'11111222,11111222,11111222' 
TCOON,ioos:station:TCOON:524:1,2017-06-01T19:36:00Z,29.8672,-93.9310,0.0,3.0,89.0,4.3,'11111222,11111222,11111222' 
TCOON,ioos:station:TCOON:524:1,2017-06-01T19:42:00Z,29.8672,-93.9310,0.0,2.7,85.0,4.0,'11111222,11111222,11111222' 
TCOON,ioos:station:TCOON:524:1,2017-06-01T19:48:00Z,29.8672,-93.9310,0.0,2.0,92.0,3.7,'11111222,11111222,11111222' 
TCOON,ioos:station:TCOON:524:1,2017-06-01T19:54:00Z,29.8672,-93.9310,0.0,2.6,94.0,3.7,'11111222,11111222,11111222' 
TCOON,ioos:station:TCOON:524:1,2017-06-01T20:00:00Z,29.8672,-93.9310,0.0,2.2,85.0,4.1,'11111222,11111222,11111222' 
TCOON,ioos:station:TCOON:524:1,2017-06-01T20:06:00Z,29.8672,-93.9310,0.0,2.4,93.0,4.0,'11111222,11111222,11111222' 
TCOON,ioos:station:TCOON:524:1,2017-06-01T20:12:00Z,29.8672,-93.9310,0.0,2.5,80.0,3.9,'11111222,11111222,11111222' 
TCOON,ioos:station:TCOON:524:1,2017-06-01T20:18:00Z,29.8672,-93.9310,0.0,2.5,80.0,3.9,'1111122,1111122,1111122' 
TCOON,ioos:station:TCOON:524:1,2017-06-01T20:24:00Z,29.8672,-93.9310,0.0,2.7,106.0,4.2,'11111222,11111222,11111222' 